Home   Weather   Stans   Past weeks

Flag for Switzerland Past Weather in Stans, Nidwalden, Switzerland — Yesterday and Last 2 Weeks

Now
66 °F

Mild.


Feels Like: 66 °F
Forecast: 58 / 83 °F
Wind: 1 mph from Southwest

Location: Giswil

Current Time: Jul 28, 2017 at 9:11:03 pm

Latest Report: Jul 28, 2017 at 8:00 pm


Visibility: N/A

Pressure: 30.02 "Hg

Humidity: 80%

Dew Point: 59 °F

Location of StansLocation

Past Weather in Stans — Graph

°F

Stans Temperature Yesterday

Maximum temperature yesterday: 71 °F (at 5:00 pm)
Minimum temperature yesterday: 50 °F (at 1:00 am)
Average temperature yesterday: 61 °F

High & Low Weather Summary for the Past Weeks

 TemperatureHumidityPressure
High86 °F (Jul 19, 3:00 pm)100% (Jul 17, 6:00 am)30.30 "Hg (Jul 17, 6:00 am)
Low50 °F (Jul 16, 3:00 am)39% (Jul 14, 4:00 pm)29.78 "Hg (Jul 21, 5:00 pm)
Average65 °F82%30.01 "Hg
* Reported Jul 13 7:00 pm — Jul 28 7:00 pm, Stans. Weather by CustomWeather, © 2017

Note: Actual official high and low records may vary slightly from our data, if they occured in-between our weather recording intervals... More about our weather records

Advertising

Stans Weather History for the Previous 24 Hours

Scroll right to see more
 ConditionsComfort  
Time TempWeatherWind HumidityBarometerVisibility
7:00 pm
Fri, Jul 28
66 °FMild.1 mph77%30.03 "HgN/A
6:00 pm66 °FMild.2 mph74%30.02 "HgN/A
5:00 pm66 °FMild.1 mph75%30.03 "HgN/A
4:00 pm64 °FMild.2 mph82%30.06 "HgN/A
3:00 pm63 °FMild.1 mph83%30.06 "HgN/A
2:00 pm63 °FMild.2 mph81%30.06 "HgN/A
1:00 pm62 °FCool.3 mph84%30.06 "HgN/A
12:00 pm62 °FCool.6 mph87%30.05 "HgN/A
11:00 am62 °FCool.6 mph87%30.03 "HgN/A
10:00 am62 °FCool.9 mph95%30.01 "HgN/A
9:00 am64 °FMild.1 mph100%29.98 "HgN/A
8:00 am63 °FMild.1 mph99%29.96 "HgN/A
7:00 am61 °FCool.No wind99%29.94 "HgN/A
6:00 am61 °FCool.2 mph99%29.93 "HgN/A
5:00 am61 °FCool.1 mph99%29.93 "HgN/A
4:00 am61 °FCool.1 mph100%29.93 "HgN/A
3:00 am62 °FCool.2 mph99%29.93 "HgN/A
2:00 am63 °FMild.2 mph99%29.93 "HgN/A
1:00 am62 °FCool.5 mph100%29.91 "HgN/A
12:00 am62 °FCool.1 mph99%29.89 "HgN/A
11:00 pm
Thu, Jul 27
63 °FMild.1 mph99%29.89 "HgN/A
10:00 pm63 °FMild.1 mph99%29.88 "HgN/A
9:00 pm65 °FMild.2 mph94%29.87 "HgN/A
Weather by CustomWeather, © 2017

See weather overviewHow to use our weather pages